User: anonymous   Login
Location: Unspecified
(0.0000°N, 0.0000°E)
Time: 13:12:50
(UTC+00:00)
Language:

Cubesat XI-IV - Orbit

View from above orbital plane
View from above orbital plane
View from above satellite
View from above satellite

Ground track
Ground track

The orbit data is extracted from the following two-line orbital elements,

1 27848U 03031J   21015.76803835  .00000023  00000-0  30353-4 0  9998
2 27848  98.6876  26.8556 0009954 167.9603 192.1815 14.21862970910115
Epoch (UTC): 15 January 2021 18:25:58
Eccentricity: 0.0009954
inclination: 98.6876°
perigee height: 812 km
apogee height: 826 km
right ascension of ascending node: 26.8556°
argument of perigee: 167.9603°
revolutions per day: 14.21862970
mean anomaly at epoch: 192.1815°
orbit number at epoch: 91011

The dashed part of the orbit path shows where the satellite is in the earth's shadow,  

DLR